| time (UTC) | temp C | wind direction | speed KPH | gust KPH | rain 1hr cm | rain 24hr cm | rain mn cm | humidity % | barometer mb |
| 20260903025837 | 27 | 219 | 12.9 | 16.1 | 0.00 | 0.00 | 0.00 | 76 | 1013.8 |
| 20260903025333 | 27 | 201 | 14.5 | 16.1 | 0.00 | 0.00 | 0.00 | 76 | 1013.9 |
| 20260903024832 | 27 | 206 | 8.0 | 12.9 | 0.00 | 0.00 | 0.00 | 76 | 1013.9 |
| 20260903024331 | 27 | 205 | 8.0 | 12.9 | 0.00 | 0.00 | 0.00 | 76 | 1014.2 |
| 20260903023822 | 27 | 192 | 6.4 | 11.3 | 0.00 | 0.00 | 0.00 | 76 | 1014.2 |
| 20260903023317 | 27 | 193 | 11.3 | 16.1 | 0.00 | 0.00 | 0.00 | 75 | 1014.2 |
| 20260903022812 | 27 | 212 | 8.0 | 16.1 | 0.00 | 0.00 | 0.00 | 75 | 1014.2 |
| 20260903022310 | 27 | 210 | 12.9 | 16.1 | 0.00 | 0.00 | 0.00 | 75 | 1014.2 |
| 20260903021805 | 27 | 211 | 9.7 | 14.5 | 0.00 | 0.00 | 0.00 | 76 | 1014.1 |
| 20260903021301 | 27 | 212 | 9.7 | 12.9 | 0.00 | 0.00 | 0.00 | 76 | 1014.2 |
| 20260903020800 | 27 | 204 | 8.0 | 14.5 | 0.00 | 0.00 | 0.00 | 77 | 1014.3 |
| 20260903020255 | 27 | 199 | 6.4 | 12.9 | 0.00 | 0.00 | 0.00 | 77 | 1014.5 |
| 20260903015750 | 27 | 197 | 8.0 | 12.9 | 0.00 | 0.00 | 0.00 | 77 | 1014.3 |
| 20260903015246 | 27 | 206 | 8.0 | 9.7 | 0.00 | 0.00 | 0.00 | 77 | 1014.2 |
| 20260903014741 | 27 | 201 | 6.4 | 11.3 | 0.00 | 0.00 | 0.00 | 76 | 1014.2 |
| 20260903014240 | 27 | 211 | 8.0 | 11.3 | 0.00 | 0.00 | 0.00 | 76 | 1014.4 |
| 20260903013736 | 27 | 211 | 6.4 | 11.3 | 0.00 | 0.00 | 0.00 | 76 | 1014.2 |
| 20260903013235 | 27 | 188 | 3.2 | 9.7 | 0.00 | 0.00 | 0.00 | 76 | 1014.4 |
| 20260903012733 | 27 | 208 | 4.8 | 9.7 | 0.00 | 0.00 | 0.00 | 75 | 1014.1 |
| 20260903012228 | 27 | 204 | 6.4 | 9.7 | 0.00 | 0.00 | 0.00 | 75 | 1014.2 |
| 20260903011728 | 27 | 211 | 4.8 | 11.3 | 0.00 | 0.00 | 0.00 | 74 | 1014.2 |
| 20260903011221 | 27 | 197 | 6.4 | 11.3 | 0.00 | 0.00 | 0.00 | 74 | 1014.2 |
| 20260903010717 | 28 | 213 | 4.8 | 11.3 | 0.00 | 0.00 | 0.00 | 73 | 1014.2 |
| 20260903010217 | 28 | 212 | 8.0 | 9.7 | 0.00 | 0.00 | 0.00 | 72 | 1014.1 |
| 20260903005716 | 28 | 208 | 3.2 | 9.7 | 0.00 | 0.00 | 0.00 | 71 | 1014.1 |
| 20260903005211 | 28 | 192 | 6.4 | 9.7 | 0.00 | 0.00 | 0.00 | 70 | 1013.9 |
| 20260903004707 | 28 | 208 | 6.4 | 8.0 | 0.00 | 0.00 | 0.00 | 69 | 1013.9 |
| 20260903004202 | 28 | 208 | 6.4 | 8.0 | 0.00 | 0.00 | 0.00 | 68 | 1013.9 |
| 20260903003658 | 29 | 210 | 8.0 | 11.3 | 0.00 | 0.00 | 0.00 | 67 | 1013.7 |
| 20260903003153 | 29 | 202 | 4.8 | 9.7 | 0.00 | 0.00 | 0.00 | 66 | 1013.6 |
| 20260903002648 | 30 | 218 | 4.8 | 11.3 | 0.00 | 0.00 | 0.00 | 65 | 1013.8 |
| 20260903002142 | 30 | 205 | 8.0 | 11.3 | 0.00 | 0.00 | 0.00 | 64 | 1013.7 |
| 20260903001636 | 30 | 238 | 3.2 | 8.0 | 0.00 | 0.00 | 0.00 | 64 | 1013.7 |
| 20260903001131 | 30 | 217 | 6.4 | 9.7 | 0.00 | 0.00 | 0.00 | 63 | 1013.7 |
| 20260903000627 | 30 | 220 | 6.4 | 9.7 | 0.00 | 0.00 | 0.00 | 63 | 1013.9 |
| 20260903000126 | 30 | 225 | 8.0 | 11.3 | 0.00 | 0.00 | 0.00 | 62 | 1013.6 |
| 20260902235625 | 30 | 214 | 6.4 | 6.4 | 0.00 | 0.00 | 0.00 | 62 | 1013.6 |
| 20260902235120 | 30 | 218 | 4.8 | 14.5 | 0.00 | 0.00 | 0.00 | 61 | 1013.8 |
| 20260902234614 | 31 | 244 | 3.2 | 6.4 | 0.00 | 0.00 | 0.00 | 60 | 1013.6 |
| 20260902234113 | 31 | 235 | 6.4 | 9.7 | 0.00 | 0.00 | 0.00 | 59 | 1013.6 |
| 20260902233608 | 31 | 213 | 6.4 | 9.7 | 0.00 | 0.00 | 0.00 | 59 | 1013.7 |
| 20260902233102 | 31 | 236 | 6.4 | 11.3 | 0.00 | 0.00 | 0.00 | 58 | 1013.6 |
| 20260902232602 | 31 | 244 | 3.2 | 12.9 | 0.00 | 0.00 | 0.00 | 57 | 1013.7 |
| 20260902232056 | 31 | 224 | 12.9 | 17.7 | 0.00 | 0.00 | 0.00 | 56 | 1013.7 |
| 20260902231556 | 31 | 243 | 4.8 | 12.9 | 0.00 | 0.00 | 0.00 | 56 | 1013.6 |
| 20260902231050 | 31 | 242 | 6.4 | 14.5 | 0.00 | 0.00 | 0.00 | 56 | 1013.6 |
| 20260902230545 | 32 | 238 | 8.0 | 20.9 | 0.00 | 0.00 | 0.00 | 55 | 1013.6 |
| 20260902230044 | 32 | 245 | 9.7 | 16.1 | 0.00 | 0.00 | 0.00 | 55 | 1013.6 |
| 20260902225539 | 32 | 231 | 8.0 | 17.7 | 0.00 | 0.00 | 0.00 | 55 | 1014.1 |
| 20260902225039 | 32 | 224 | 8.0 | 11.3 | 0.00 | 0.00 | 0.00 | 54 | 1013.7 |
| 20260902224538 | 32 | 233 | 6.4 | 16.1 | 0.00 | 0.00 | 0.00 | 54 | 1013.8 |
| 20260902224034 | 32 | 237 | 6.4 | 12.9 | 0.00 | 0.00 | 0.00 | 53 | 1013.6 |
| 20260902223530 | 32 | 231 | 20.9 | 20.9 | 0.00 | 0.00 | 0.00 | 53 | 1013.7 |
| 20260902223029 | 32 | 237 | 11.3 | 20.9 | 0.00 | 0.00 | 0.00 | 52 | 1013.8 |
| 20260902222528 | 32 | 213 | 8.0 | 12.9 | 0.00 | 0.00 | 0.00 | 53 | 1013.9 |
| 20260902222026 | 32 | 244 | 8.0 | 16.1 | 0.00 | 0.00 | 0.00 | 53 | 1014.1 |
| 20260902221521 | 32 | 246 | 11.3 | 20.9 | 0.00 | 0.00 | 0.00 | 51 | 1013.9 |
| 20260902221016 | 32 | 237 | 8.0 | 19.3 | 0.00 | 0.00 | 0.00 | 51 | 1014.1 |
| 20260902220511 | 32 | 255 | 20.9 | 20.9 | 0.00 | 0.00 | 0.00 | 51 | 1013.9 |
| 20260902220006 | 32 | 257 | 20.9 | 20.9 | 0.00 | 0.00 | 0.00 | 51 | 1014.1 |
| 20260902215502 | 33 | 230 | 16.1 | 16.1 | 0.00 | 0.00 | 0.00 | 49 | 1013.9 |
| 20260902214957 | 33 | 238 | 6.4 | 12.9 | 0.00 | 0.00 | 0.00 | 48 | 1014.2 |
| 20260902214457 | 33 | 224 | 6.4 | 17.7 | 0.00 | 0.00 | 0.00 | 48 | 1014.1 |
| 20260902213955 | 33 | 234 | 6.4 | 19.3 | 0.00 | 0.00 | 0.00 | 47 | 1013.8 |
| 20260902213452 | 33 | 229 | 6.4 | 16.1 | 0.00 | 0.00 | 0.00 | 46 | 1013.8 |
| 20260902212950 | 33 | 244 | 14.5 | 20.9 | 0.00 | 0.00 | 0.00 | 47 | 1013.7 |
| 20260902212447 | 33 | 245 | 9.7 | 20.9 | 0.00 | 0.00 | 0.00 | 50 | 1013.6 |
| 20260902211943 | 33 | 199 | 11.3 | 27.4 | 0.00 | 0.00 | 0.00 | 49 | 1014.1 |
| 20260902211439 | 33 | 236 | 6.4 | 24.1 | 0.00 | 0.00 | 0.00 | 49 | 1013.9 |
| 20260902210933 | 32 | 207 | 19.3 | 22.5 | 0.00 | 0.00 | 0.00 | 51 | 1013.9 |
| 20260902210428 | 33 | 217 | 11.3 | 14.5 | 0.00 | 0.00 | 0.00 | 49 | 1013.9 |
| 20260902205920 | 33 | 242 | 6.4 | 24.1 | 0.00 | 0.00 | 0.00 | 50 | 1014.1 |
| 20260902205415 | 32 | 229 | 8.0 | 25.7 | 0.00 | 0.00 | 0.00 | 50 | 1014.2 |
| 20260902204906 | 33 | 218 | 9.7 | 20.9 | 0.00 | 0.00 | 0.00 | 50 | 1014.3 |
| 20260902204405 | 33 | 216 | 24.1 | 24.1 | 0.00 | 0.00 | 0.00 | 49 | 1014.3 |
| 20260902203901 | 32 | 232 | 11.3 | 20.9 | 0.00 | 0.00 | 0.00 | 50 | 1014.4 |
| 20260902203356 | 33 | 245 | 8.0 | 27.4 | 0.00 | 0.00 | 0.00 | 49 | 1014.4 |
| 20260902202850 | 33 | 229 | 6.4 | 16.1 | 0.00 | 0.00 | 0.00 | 52 | 1014.5 |
| 20260902202346 | 33 | 226 | 9.7 | 20.9 | 0.00 | 0.00 | 0.00 | 50 | 1014.6 |
| 20260902201842 | 33 | 215 | 11.3 | 24.1 | 0.00 | 0.00 | 0.00 | 51 | 1014.5 |
| 20260902201342 | 32 | 209 | 14.5 | 19.3 | 0.00 | 0.00 | 0.00 | 51 | 1014.6 |
| 20260902200837 | 32 | 225 | 9.7 | 14.5 | 0.00 | 0.00 | 0.00 | 53 | 1014.8 |
| 20260902200332 | 33 | 226 | 8.0 | 17.7 | 0.00 | 0.00 | 0.00 | 51 | 1014.6 |
| 20260902195828 | 32 | 222 | 8.0 | 12.9 | 0.00 | 0.00 | 0.00 | 51 | 1014.6 |
| 20260902195327 | 33 | 223 | 6.4 | 20.9 | 0.00 | 0.00 | 0.00 | 50 | 1014.6 |
| 20260902194822 | 34 | 208 | 9.7 | 16.1 | 0.00 | 0.00 | 0.00 | 47 | 1014.7 |
| 20260902194317 | 33 | 239 | 8.0 | 20.9 | 0.00 | 0.00 | 0.00 | 47 | 1014.7 |
| 20260902193812 | 33 | 242 | 12.9 | 19.3 | 0.00 | 0.00 | 0.00 | 46 | 1014.9 |
| 20260902193308 | 33 | 237 | 12.9 | 25.7 | 0.00 | 0.00 | 0.00 | 50 | 1015.0 |
| 20260902192807 | 33 | 259 | 12.9 | 24.1 | 0.00 | 0.00 | 0.00 | 48 | 1015.1 |
| 20260902192307 | 33 | 212 | 8.0 | 22.5 | 0.00 | 0.00 | 0.00 | 46 | 1015.1 |
| 20260902191805 | 33 | 228 | 14.5 | 20.9 | 0.00 | 0.00 | 0.00 | 47 | 1014.9 |
| 20260902191301 | 33 | 245 | 17.7 | 30.6 | 0.00 | 0.00 | 0.00 | 48 | 1015.2 |
| 20260902190756 | 33 | 234 | 8.0 | 20.9 | 0.00 | 0.00 | 0.00 | 50 | 1015.2 |
| 20260902190255 | 33 | 221 | 12.9 | 20.9 | 0.00 | 0.00 | 0.00 | 49 | 1015.3 |
| 20260902185751 | 33 | 225 | 16.1 | 20.9 | 0.00 | 0.00 | 0.00 | 50 | 1015.4 |
| 20260902185246 | 33 | 252 | 20.9 | 24.1 | 0.00 | 0.00 | 0.00 | 52 | 1015.3 |
| 20260902184742 | 33 | 248 | 29.0 | 29.0 | 0.00 | 0.00 | 0.00 | 49 | 1015.3 |
| 20260902184242 | 33 | 239 | 14.5 | 17.7 | 0.00 | 0.00 | 0.00 | 53 | 1015.3 |
| 20260902183738 | 33 | 261 | 16.1 | 22.5 | 0.00 | 0.00 | 0.00 | 54 | 1015.4 |
| 20260902183234 | 32 | 258 | 14.5 | 29.0 | 0.00 | 0.00 | 0.00 | 54 | 1015.5 |
| 20260902182730 | 32 | 248 | 20.9 | 30.6 | 0.00 | 0.00 | 0.00 | 52 | 1015.5 |
| 20260902182226 | 32 | 250 | 11.3 | 27.4 | 0.00 | 0.00 | 0.00 | 53 | 1015.5 |
| 20260902181723 | 32 | 234 | 9.7 | 25.7 | 0.00 | 0.00 | 0.00 | 52 | 1015.6 |
| 20260902181222 | 32 | 232 | 8.0 | 20.9 | 0.00 | 0.00 | 0.00 | 53 | 1015.7 |
| 20260902180717 | 32 | 238 | 9.7 | 30.6 | 0.00 | 0.00 | 0.00 | 52 | 1015.7 |
| 20260902180213 | 32 | 221 | 12.9 | 20.9 | 0.00 | 0.00 | 0.00 | 52 | 1015.7 |
| 20260902175708 | 32 | 237 | 14.5 | 24.1 | 0.00 | 0.00 | 0.00 | 55 | 1015.8 |
| 20260902175204 | 33 | 254 | 14.5 | 24.1 | 0.00 | 0.00 | 0.00 | 51 | 1015.8 |
| 20260902174659 | 32 | 255 | 14.5 | 22.5 | 0.00 | 0.00 | 0.00 | 55 | 1015.9 |
| 20260902174155 | 32 | 240 | 14.5 | 22.5 | 0.00 | 0.00 | 0.00 | 56 | 1016.1 |
| 20260902173650 | 32 | 224 | 9.7 | 24.1 | 0.00 | 0.00 | 0.00 | 55 | 1016.1 |
| 20260902173145 | 32 | 246 | 9.7 | 24.1 | 0.00 | 0.00 | 0.00 | 56 | 1016.2 |
| 20260902172639 | 32 | 232 | 6.4 | 19.3 | 0.00 | 0.00 | 0.00 | 52 | 1016.1 |
| 20260902172138 | 32 | 263 | 11.3 | 19.3 | 0.00 | 0.00 | 0.00 | 58 | 1016.1 |
| 20260902171634 | 32 | 242 | 4.8 | 17.7 | 0.00 | 0.00 | 0.00 | 56 | 1016.3 |
| 20260902171130 | 31 | 247 | 16.1 | 24.1 | 0.00 | 0.00 | 0.00 | 57 | 1016.2 |
| 20260902170625 | 32 | 246 | 6.4 | 20.9 | 0.00 | 0.00 | 0.00 | 59 | 1016.3 |
| 20260902170121 | 31 | 244 | 8.0 | 20.9 | 0.00 | 0.00 | 0.00 | 59 | 1016.1 |
| 20260902165620 | 31 | 248 | 17.7 | 19.3 | 0.00 | 0.00 | 0.00 | 58 | 1016.2 |
| 20260902165115 | 31 | 222 | 4.8 | 17.7 | 0.00 | 0.00 | 0.00 | 59 | 1016.4 |
| 20260902164610 | 31 | 256 | 11.3 | 20.9 | 0.00 | 0.00 | 0.00 | 60 | 1016.5 |
| 20260902164109 | 31 | 249 | 12.9 | 29.0 | 0.00 | 0.00 | 0.00 | 57 | 1016.5 |
| 20260902163605 | 31 | 277 | 19.3 | 24.1 | 0.00 | 0.00 | 0.00 | 60 | 1016.6 |
| 20260902163103 | 31 | 250 | 14.5 | 22.5 | 0.00 | 0.00 | 0.00 | 60 | 1016.8 |
| 20260902162602 | 31 | 230 | 8.0 | 20.9 | 0.00 | 0.00 | 0.00 | 61 | 1016.7 |
| 20260902162057 | 31 | 255 | 6.4 | 12.9 | 0.00 | 0.00 | 0.00 | 62 | 1016.8 |
| 20260902161552 | 31 | 254 | 11.3 | 19.3 | 0.00 | 0.00 | 0.00 | 60 | 1016.7 |
| 20260902161049 | 31 | 240 | 20.9 | 20.9 | 0.00 | 0.00 | 0.00 | 60 | 1016.7 |
| 20260902160544 | 30 | 241 | 14.5 | 20.9 | 0.00 | 0.00 | 0.00 | 60 | 1016.7 |
| 20260902160039 | 30 | 241 | 9.7 | 20.9 | 0.00 | 0.00 | 0.00 | 62 | 1016.9 |
| 20260902155532 | 30 | 247 | 6.4 | 14.5 | 0.00 | 0.00 | 0.00 | 63 | 1016.5 |
| 20260902155031 | 30 | 241 | 9.7 | 17.7 | 0.00 | 0.00 | 0.00 | 65 | 1016.6 |
| 20260902154527 | 30 | 249 | 14.5 | 20.9 | 0.00 | 0.00 | 0.00 | 63 | 1016.8 |
| 20260902154021 | 30 | 241 | 12.9 | 20.9 | 0.00 | 0.00 | 0.00 | 63 | 1016.6 |
| 20260902153520 | 30 | 243 | 11.3 | 17.7 | 0.00 | 0.00 | 0.00 | 63 | 1016.6 |
| 20260902153016 | 30 | 242 | 11.3 | 22.5 | 0.00 | 0.00 | 0.00 | 65 | 1016.7 |
| 20260902152512 | 30 | 249 | 17.7 | 22.5 | 0.00 | 0.00 | 0.00 | 65 | 1016.7 |
| 20260902152007 | 30 | 243 | 8.0 | 14.5 | 0.00 | 0.00 | 0.00 | 64 | 1016.5 |
| 20260902151503 | 30 | 229 | 8.0 | 14.5 | 0.00 | 0.00 | 0.00 | 65 | 1016.7 |
| 20260902150956 | 30 | 219 | 11.3 | 11.3 | 0.00 | 0.00 | 0.00 | 64 | 1016.4 |
| 20260902150452 | 30 | 256 | 6.4 | 14.5 | 0.00 | 0.00 | 0.00 | 65 | 1016.3 |
| 20260902145952 | 29 | 203 | 24.1 | 24.1 | 0.00 | 0.00 | 0.00 | 65 | 1016.4 |
| 20260902145447 | 29 | 227 | 4.8 | 12.9 | 0.00 | 0.00 | 0.00 | 67 | 1016.4 |
| 20260902144941 | 29 | 221 | 11.3 | 16.1 | 0.00 | 0.00 | 0.00 | 66 | 1016.4 |
| 20260902144438 | 28 | 230 | 6.4 | 17.7 | 0.00 | 0.00 | 0.00 | 66 | 1016.5 |
| 20260902143932 | 28 | 237 | 8.0 | 17.7 | 0.00 | 0.00 | 0.00 | 68 | 1016.4 |
| 20260902143427 | 28 | 229 | 6.4 | 16.1 | 0.00 | 0.00 | 0.00 | 67 | 1016.4 |
| 20260902142923 | 28 | 232 | 11.3 | 20.9 | 0.00 | 0.00 | 0.00 | 67 | 1016.5 |
| 20260902142419 | 28 | 257 | 14.5 | 19.3 | 0.00 | 0.00 | 0.00 | 68 | 1016.3 |
| 20260902141914 | 28 | 227 | 6.4 | 11.3 | 0.00 | 0.00 | 0.00 | 66 | 1016.4 |
| 20260902141409 | 28 | 249 | 11.3 | 17.7 | 0.00 | 0.00 | 0.00 | 67 | 1016.2 |
| 20260902140908 | 28 | 233 | 14.5 | 17.7 | 0.00 | 0.00 | 0.00 | 66 | 1016.1 |
| 20260902140404 | 28 | 207 | 8.0 | 12.9 | 0.00 | 0.00 | 0.00 | 67 | 1016.0 |
| 20260902135858 | 28 | 240 | 6.4 | 14.5 | 0.00 | 0.00 | 0.00 | 69 | 1016.3 |
| 20260902135354 | 27 | 234 | 4.8 | 14.5 | 0.00 | 0.00 | 0.00 | 70 | 1016.3 |
| 20260902134853 | 27 | 231 | 9.7 | 17.7 | 0.00 | 0.00 | 0.00 | 70 | 1016.1 |
| 20260902134349 | 27 | 216 | 8.0 | 17.7 | 0.00 | 0.00 | 0.00 | 71 | 1016.2 |
| 20260902133843 | 27 | 229 | 4.8 | 16.1 | 0.00 | 0.00 | 0.00 | 70 | 1016.0 |
| 20260902133343 | 27 | 241 | 4.8 | 11.3 | 0.00 | 0.00 | 0.00 | 71 | 1016.2 |
| 20260902132838 | 27 | 201 | 14.5 | 16.1 | 0.00 | 0.00 | 0.00 | 72 | 1016.2 |
| 20260902132333 | 27 | 229 | 9.7 | 11.3 | 0.00 | 0.00 | 0.00 | 72 | 1016.3 |
| 20260902131829 | 27 | 228 | 6.4 | 11.3 | 0.00 | 0.00 | 0.00 | 73 | 1016.3 |
| 20260902131326 | 26 | 223 | 8.0 | 11.3 | 0.00 | 0.00 | 0.00 | 74 | 1016.3 |
| 20260902130825 | 26 | 216 | 4.8 | 11.3 | 0.00 | 0.00 | 0.00 | 75 | 1016.2 |
| 20260902130321 | 26 | 203 | 6.4 | 14.5 | 0.00 | 0.00 | 0.00 | 75 | 1016.2 |
| 20260902125816 | 26 | 242 | 6.4 | 11.3 | 0.00 | 0.00 | 0.00 | 75 | 1016.3 |
| 20260902125312 | 26 | 206 | 6.4 | 16.1 | 0.00 | 0.00 | 0.00 | 76 | 1016.1 |
| 20260902124808 | 26 | 236 | 3.2 | 16.1 | 0.00 | 0.00 | 0.00 | 77 | 1016.3 |
| 20260902124303 | 25 | 232 | 4.8 | 9.7 | 0.00 | 0.00 | 0.00 | 77 | 1016.3 |
| 20260902123758 | 25 | 250 | 6.4 | 14.5 | 0.00 | 0.00 | 0.00 | 78 | 1016.2 |
| 20260902123254 | 25 | 259 | 3.2 | 8.0 | 0.00 | 0.00 | 0.00 | 79 | 1016.2 |
| 20260902122752 | 25 | 219 | 4.8 | 8.0 | 0.00 | 0.00 | 0.00 | 79 | 1016.3 |
| 20260902122249 | 25 | 216 | 4.8 | 9.7 | 0.00 | 0.00 | 0.00 | 80 | 1016.3 |
| 20260902121743 | 25 | 211 | 4.8 | 9.7 | 0.00 | 0.00 | 0.00 | 80 | 1016.3 |
| 20260902121238 | 25 | 209 | 4.8 | 8.0 | 0.00 | 0.00 | 0.00 | 80 | 1016.2 |
| 20260902120733 | 25 | 210 | 4.8 | 9.7 | 0.00 | 0.00 | 0.00 | 81 | 1016.2 |
| 20260902120229 | 25 | 225 | 3.2 | 17.7 | 0.00 | 0.00 | 0.00 | 81 | 1016.4 |
| 20260902115724 | 24 | 212 | 4.8 | 12.9 | 0.00 | 0.00 | 0.00 | 82 | 1016.2 |
| 20260902115220 | 24 | 204 | 6.4 | 14.5 | 0.00 | 0.00 | 0.00 | 82 | 1016.2 |
| 20260902114716 | 24 | 211 | 4.8 | 11.3 | 0.00 | 0.00 | 0.00 | 82 | 1016.2 |
| 20260902114211 | 24 | 217 | 6.4 | 12.9 | 0.00 | 0.00 | 0.00 | 83 | 1016.0 |
| 20260902113706 | 24 | 208 | 6.4 | 14.5 | 0.00 | 0.00 | 0.00 | 82 | 1016.1 |
| 20260902113201 | 24 | 211 | 6.4 | 9.7 | 0.00 | 0.00 | 0.00 | 83 | 1016.1 |
| 20260902112701 | 24 | 223 | 4.8 | 11.3 | 0.00 | 0.00 | 0.00 | 83 | 1016.1 |
| 20260902112158 | 23 | 216 | 8.0 | 9.7 | 0.00 | 0.00 | 0.00 | 84 | 1015.9 |
| 20260902111654 | 23 | 212 | 3.2 | 9.7 | 0.00 | 0.00 | 0.00 | 84 | 1016.0 |
| 20260902111149 | 23 | 212 | 4.8 | 6.4 | 0.00 | 0.00 | 0.00 | 84 | 1015.9 |
| 20260902110644 | 23 | 212 | 4.8 | 8.0 | 0.00 | 0.00 | 0.00 | 84 | 1015.8 |
| 20260902110141 | 23 | 225 | 3.2 | 6.4 | 0.00 | 0.00 | 0.00 | 84 | 1015.9 |
| 20260902105640 | 23 | 227 | 3.2 | 8.0 | 0.00 | 0.00 | 0.00 | 84 | 1015.9 |
| 20260902105136 | 23 | 230 | 4.8 | 9.7 | 0.00 | 0.00 | 0.00 | 84 | 1015.7 |
| 20260902104631 | 23 | 219 | 4.8 | 6.4 | 0.00 | 0.00 | 0.00 | 84 | 1015.7 |
| 20260902104126 | 23 | 246 | 3.2 | 8.0 | 0.00 | 0.00 | 0.00 | 84 | 1015.7 |
| 20260902103625 | 23 | 220 | 1.6 | 4.8 | 0.00 | 0.00 | 0.00 | 85 | 1015.8 |
| 20260902103121 | 23 | 235 | 3.2 | 8.0 | 0.00 | 0.00 | 0.00 | 84 | 1015.6 |
| 20260902102617 | 23 | 221 | 3.2 | 4.8 | 0.00 | 0.00 | 0.00 | 85 | 1015.7 |
| 20260902102114 | 23 | 227 | 4.8 | 4.8 | 0.00 | 0.00 | 0.00 | 84 | 1015.5 |
| 20260902101609 | 23 | 236 | 4.8 | 6.4 | 0.00 | 0.00 | 0.00 | 84 | 1015.7 |
| 20260902101103 | 23 | 257 | 6.4 | 8.0 | 0.00 | 0.00 | 0.00 | 84 | 1015.8 |
| 20260902100602 | 24 | 264 | 4.8 | 8.0 | 0.00 | 0.00 | 0.00 | 83 | 1015.6 |
| 20260902100058 | 24 | 252 | 6.4 | 8.0 | 0.00 | 0.00 | 0.00 | 83 | 1015.6 |
| 20260902095551 | 24 | 212 | 3.2 | 8.0 | 0.00 | 0.00 | 0.00 | 83 | 1015.6 |
| 20260902095051 | 24 | 221 | 4.8 | 6.4 | 0.00 | 0.00 | 0.00 | 83 | 1015.7 |
| 20260902094546 | 24 | 218 | 4.8 | 9.7 | 0.00 | 0.00 | 0.00 | 83 | 1015.6 |
| 20260902094042 | 24 | 212 | 4.8 | 8.0 | 0.00 | 0.00 | 0.00 | 83 | 1015.6 |
| 20260902093537 | 24 | 202 | 4.8 | 8.0 | 0.00 | 0.00 | 0.00 | 83 | 1015.6 |
| 20260902093037 | 24 | 203 | 8.0 | 12.9 | 0.00 | 0.00 | 0.00 | 83 | 1015.8 |
| 20260902092532 | 24 | 203 | 8.0 | 11.3 | 0.00 | 0.00 | 0.00 | 83 | 1015.6 |
| 20260902092027 | 25 | 212 | 4.8 | 9.7 | 0.00 | 0.00 | 0.00 | 82 | 1015.8 |
| 20260902091522 | 24 | 201 | 4.8 | 9.7 | 0.00 | 0.00 | 0.00 | 83 | 1015.7 |
| 20260902091018 | 24 | 205 | 4.8 | 8.0 | 0.00 | 0.00 | 0.00 | 83 | 1015.6 |
| 20260902090514 | 24 | 204 | 4.8 | 8.0 | 0.00 | 0.00 | 0.00 | 84 | 1015.7 |
| 20260902090013 | 24 | 208 | 4.8 | 6.4 | 0.00 | 0.00 | 0.00 | 84 | 1015.6 |
| 20260902085513 | 24 | 174 | 1.6 | 8.0 | 0.00 | 0.00 | 0.00 | 85 | 1015.5 |
| 20260902085008 | 23 | 208 | 3.2 | 6.4 | 0.00 | 0.00 | 0.00 | 85 | 1015.8 |
| 20260902084504 | 23 | 193 | 3.2 | 6.4 | 0.00 | 0.00 | 0.00 | 85 | 1015.5 |
| 20260902084000 | 23 | 200 | 4.8 | 11.3 | 0.00 | 0.00 | 0.00 | 86 | 1015.4 |
| 20260902083455 | 23 | 201 | 4.8 | 8.0 | 0.00 | 0.00 | 0.00 | 86 | 1015.7 |
| 20260902082949 | 23 | 194 | 4.8 | 8.0 | 0.00 | 0.00 | 0.00 | 86 | 1015.4 |
| 20260902082445 | 23 | 202 | 4.8 | 9.7 | 0.00 | 0.00 | 0.00 | 86 | 1015.5 |
| 20260902081941 | 24 | 209 | 4.8 | 9.7 | 0.00 | 0.00 | 0.00 | 85 | 1015.4 |
| 20260902081437 | 24 | 212 | 8.0 | 9.7 | 0.00 | 0.00 | 0.00 | 85 | 1015.4 |
| 20260902080932 | 24 | 202 | 8.0 | 12.9 | 0.00 | 0.00 | 0.00 | 85 | 1015.4 |
| 20260902080428 | 24 | 192 | 4.8 | 12.9 | 0.00 | 0.00 | 0.00 | 84 | 1015.5 |
| 20260902075928 | 25 | 202 | 6.4 | 16.1 | 0.00 | 0.00 | 0.00 | 84 | 1015.2 |
| 20260902075424 | 25 | 207 | 6.4 | 12.9 | 0.00 | 0.00 | 0.00 | 84 | 1015.2 |
| 20260902074919 | 24 | 206 | 11.3 | 16.1 | 0.00 | 0.00 | 0.00 | 84 | 1015.4 |
| 20260902074414 | 24 | 209 | 8.0 | 12.9 | 0.00 | 0.00 | 0.00 | 84 | 1015.3 |
| 20260902073909 | 24 | 204 | 8.0 | 11.3 | 0.00 | 0.00 | 0.00 | 85 | 1015.5 |
| 20260902073405 | 24 | 202 | 8.0 | 11.3 | 0.00 | 0.00 | 0.00 | 85 | 1015.1 |
| 20260902072901 | 24 | 208 | 4.8 | 9.7 | 0.00 | 0.00 | 0.00 | 85 | 1015.1 |
| 20260902072357 | 25 | 219 | 4.8 | 9.7 | 0.00 | 0.00 | 0.00 | 84 | 1015.1 |
| 20260902071853 | 25 | 208 | 3.2 | 9.7 | 0.00 | 0.00 | 0.00 | 84 | 1015.3 |
| 20260902071352 | 25 | 204 | 3.2 | 4.8 | 0.00 | 0.00 | 0.00 | 84 | 1015.2 |
| 20260902070849 | 25 | 199 | 4.8 | 8.0 | 0.00 | 0.00 | 0.00 | 84 | 1015.1 |
| 20260902070344 | 25 | 194 | 1.6 | 9.7 | 0.00 | 0.00 | 0.00 | 83 | 1015.2 |
| 20260902065842 | 25 | 202 | 4.8 | 8.0 | 0.00 | 0.00 | 0.00 | 83 | 1015.0 |
| 20260902065338 | 25 | 207 | 3.2 | 8.0 | 0.00 | 0.00 | 0.00 | 82 | 1015.2 |
| 20260902064833 | 25 | 192 | 6.4 | 8.0 | 0.00 | 0.00 | 0.00 | 82 | 1015.3 |
| 20260902064330 | 25 | 207 | 4.8 | 11.3 | 0.00 | 0.00 | 0.00 | 81 | 1015.3 |
| 20260902063825 | 25 | 199 | 6.4 | 9.7 | 0.00 | 0.00 | 0.00 | 81 | 1015.2 |
| 20260902063324 | 25 | 203 | 6.4 | 8.0 | 0.00 | 0.00 | 0.00 | 81 | 1015.3 |
| 20260902062819 | 25 | 209 | 6.4 | 8.0 | 0.00 | 0.00 | 0.00 | 81 | 1015.5 |
| 20260902062314 | 25 | 189 | 3.2 | 8.0 | 0.00 | 0.00 | 0.00 | 81 | 1015.4 |
| 20260902061814 | 26 | 206 | 6.4 | 8.0 | 0.00 | 0.00 | 0.00 | 80 | 1015.4 |
| 20260902061309 | 26 | 203 | 4.8 | 6.4 | 0.00 | 0.00 | 0.00 | 80 | 1015.6 |
| 20260902060806 | 26 | 210 | 4.8 | 8.0 | 0.00 | 0.00 | 0.00 | 80 | 1015.6 |
| 20260902060301 | 26 | 212 | 6.4 | 9.7 | 0.00 | 0.00 | 0.00 | 80 | 1015.7 |
| 20260902055755 | 25 | 213 | 3.2 | 4.8 | 0.00 | 0.00 | 0.00 | 80 | 1015.6 |
| 20260902055247 | 25 | 219 | 4.8 | 6.4 | 0.00 | 0.00 | 0.00 | 81 | 1015.8 |
| 20260902054747 | 25 | 223 | 1.6 | 4.8 | 0.00 | 0.00 | 0.00 | 81 | 1015.7 |
| 20260902054243 | 25 | 229 | 1.6 | 4.8 | 0.00 | 0.00 | 0.00 | 81 | 1015.8 |
| 20260902053737 | 25 | 224 | 1.6 | 3.2 | 0.00 | 0.00 | 0.00 | 81 | 1015.5 |
| 20260902053236 | 25 | 224 | 0.0 | 3.2 | 0.00 | 0.00 | 0.00 | 81 | 1015.5 |
| 20260902052731 | 26 | 220 | 0.0 | 3.2 | 0.00 | 0.00 | 0.00 | 81 | 1015.4 |
| 20260902052227 | 25 | 235 | 4.8 | 4.8 | 0.00 | 0.00 | 0.00 | 81 | 1015.5 |
| 20260902051726 | 25 | 215 | 1.6 | 6.4 | 0.00 | 0.00 | 0.00 | 81 | 1015.5 |
| 20260902051220 | 26 | 206 | 1.6 | 4.8 | 0.00 | 0.00 | 0.00 | 81 | 1015.4 |
| 20260902050715 | 26 | 239 | 3.2 | 4.8 | 0.00 | 0.00 | 0.00 | 80 | 1015.6 |
| 20260902050210 | 26 | 209 | 0.0 | 3.2 | 0.00 | 0.00 | 0.00 | 80 | 1015.7 |
| 20260902045705 | 26 | 230 | 1.6 | 6.4 | 0.00 | 0.00 | 0.00 | 80 | 1015.5 |
| 20260902045201 | 26 | 217 | 1.6 | 6.4 | 0.00 | 0.00 | 0.00 | 80 | 1015.3 |
| 20260902044656 | 26 | 250 | 3.2 | 6.4 | 0.00 | 0.00 | 0.00 | 80 | 1015.4 |
| 20260902044152 | 26 | 237 | 3.2 | 6.4 | 0.00 | 0.00 | 0.00 | 80 | 1015.4 |
| 20260902043647 | 26 | 256 | 6.4 | 12.9 | 0.00 | 0.00 | 0.00 | 79 | 1015.3 |
| 20260902043142 | 26 | 219 | 3.2 | 4.8 | 0.00 | 0.00 | 0.00 | 79 | 1015.1 |
| 20260902042641 | 26 | 225 | 3.2 | 6.4 | 0.00 | 0.00 | 0.00 | 78 | 1015.2 |
| 20260902042137 | 27 | 210 | 3.2 | 11.3 | 0.00 | 0.00 | 0.00 | 77 | 1015.1 |
| 20260902041636 | 27 | 230 | 3.2 | 8.0 | 0.00 | 0.00 | 0.00 | 77 | 1015.0 |
| 20260902041137 | 27 | 233 | 6.4 | 11.3 | 0.00 | 0.00 | 0.00 | 76 | 1014.8 |
| 20260902040631 | 27 | 229 | 4.8 | 11.3 | 0.00 | 0.00 | 0.00 | 75 | 1014.7 |
| 20260902040126 | 27 | 231 | 6.4 | 14.5 | 0.00 | 0.00 | 0.00 | 75 | 1014.7 |
| 20260902035624 | 27 | 224 | 8.0 | 14.5 | 0.00 | 0.10 | 0.10 | 75 | 1014.7 |
| 20260902035120 | 27 | 206 | 14.5 | 19.3 | 0.00 | 0.10 | 0.10 | 74 | 1014.5 |
| 20260902034619 | 27 | 212 | 11.3 | 19.3 | 0.00 | 0.10 | 0.10 | 75 | 1014.7 |
| 20260902034113 | 27 | 209 | 12.9 | 27.4 | 0.00 | 0.10 | 0.10 | 74 | 1014.8 |
| 20260902033612 | 27 | 202 | 24.1 | 25.7 | 0.00 | 0.10 | 0.10 | 74 | 1014.6 |
| 20260902033107 | 27 | 229 | 9.7 | 22.5 | 0.00 | 0.10 | 0.10 | 75 | 1014.6 |
| 20260902032605 | 27 | 209 | 12.9 | 17.7 | 0.00 | 0.10 | 0.10 | 75 | 1014.8 |
| 20260902032100 | 27 | 211 | 9.7 | 20.9 | 0.00 | 0.10 | 0.10 | 74 | 1014.7 |
| 20260902031555 | 27 | 223 | 14.5 | 16.1 | 0.00 | 0.10 | 0.10 | 76 | 1014.7 |
| 20260902031052 | 27 | 202 | 12.9 | 14.5 | 0.00 | 0.10 | 0.10 | 77 | 1014.8 |
| 20260902030551 | 26 | 204 | 8.0 | 14.5 | 0.00 | 0.10 | 0.10 | 79 | 1015.1 |
| 20260902030045 | 25 | 206 | 3.2 | 9.7 | 0.00 | 0.10 | 0.10 | 83 | 1015.1 |